Location: Unspecified
(0.0000°N, 0.0000°E)
Time: 11:03:28
(UTC+00:00)

A-11 Canister half - Pass Details

Date: 21 November 2019
Orbit: 1515 x 1684 km, 47.2° (Epoch: 14 December)

Event Time Altitude Azimuth Distance (km) Brightness Sun altitude
Exits shadow 04:22:26 15° 250° (WSW) 3,391 10.4 -19.5°
Maximum altitude 04:25:36 17° 227° (SW) 3,192 10.4 -18.8°
Drops below altitude 10° 04:31:18 10° 189° (S) 3,712 11.2 -17.5°
Sets 04:35:50 0° 170° (S) 4,676 12.0 -16.4°
